Probability
0 0 0 0 0 0 0 0 0 0 0 0 0 0 0 0 0 0 0 0 0 0 0 0 0 0 0 0 0 0 0 0 0 0 0 0 0 0 0 0 0 0 0
0 0 0 0 0 0 0 0 0 0 0 0 0 0 0 0 0 0 0 0 0 0 0 0 0 0 0 0 0 0 0 0 0 0 0 0 0 0 0 0 0 0 0
0 0 0 0 0 0 0 0 0 0 0 0 0 0 0 0 0 0 0 0 0 0 0 0 0 0 0 0 0 0 0 0 0 0 0 0 0 0 0 0 0 0 0
0 0 0 0 0 0 0 0 0 0 0 0 0 0 0 0 0 0 0 0 0 0 0 0 0 0 0 0 0 0 0 0 0 0 0 0 0 0 0 0 0 0 0
0 0 0 0 0 0 0 0 0 0 0 0 0 0 0 0 0 0 0 0 0 0 0 0 0 0 0 0 0 0 0 0 0 0 0 0 0 0 0 0 0 0 0
0 0 0 0 0 0 0 0 0 0 0 0 0 0 0 0 0 0 0 0 0 0 0 0 0 0 0 0 0 0 0 0 0 0 0 0 0 0 0 0 0 0 0
0 0 0 0 0 0 0 0 0 0 0 0 0 0 0 0 0 0 0 0 0 0 0 0 0 0 0 0 0 0 0 0 0 0 0 0 0 0 0 0 0 0 0
0 0 0 0 0 0 0 0 0 0 0 0 0 0 0 0 0 0 0 0 0 0 0 0 0 0 0 0 0 0 0 0 0 0 0 0 0 0 0 0 0 0 0
0 0 0 0 0 0 0 0 0 0 0 0 0 0 0 0 0 0 0 0 0 0 0 0 0 0 0 0 0 0 0 0 0 0 0 0 0 0 0 0 0 0 0
0 0 0 0 0 0 0 0 0 0 0 0 0 0 0 0 0 0 0 0 0 0 0 0 0 0 0 0 0 0 0 0 0 0 0 0 0 0 0 0 0 0 0
0 0 0 0 0 0 0 0 0 0 0 0 0 0 0 0 0 0 0 0 0 0 0 0 0 0 0 0 0 0 0 0 0 0 0 0 0 0 0 0 0 0 0
0 0 0 0 0 0 0 0 0 0 0 0 0 0 0 0 0 0 0 0 0 0 0 0 0 0 0 0 0 0 0 0 0 0 0 0 0 0 0 0 0 0 0
0 0 0 0 0 0 0 0 0 0 0 0 0 0 0 0 0 0 0 0 0 0 0 0 0 0 0 0 0 0 0 0 0 0 0 0 0 0 0 0 0 0 0
0 0 0 0 0 0 0 0 0 0 0 0 0 0 0 0 0 0 0 0 0 0 0 0 0 0 0 0 0 0 0 0 0 0 0 0 0 0 0 0 0 0 0
0 0 0 0 0 0 0 0 0 0 0 0 0 0 0 0 0 0 0 0 0 0 0 0 0 0 0 0 0 0 0 0 0 0 0 0 0 0 0 0 0 0 0
0 0 0 0 0 0 0 0 0 0 0 0 0 0 0 0 0 0 0 0 0 0 0 0 0 0 0 0 0 0 0 0 0 0 0 0 0 0 0 0 0 0 0
0 0 0 0 0 0 0 0 0 0 0 0 0 0 0 0 0 0 0 0 0 0 0 0 0 0 0 0 0 0 0 0 0 0 0 0 0 0 0 0 0 0 0
0 0 0 0 0 0 0 0 0 0 0 0 0 0 0 0 0 0 0 0 0 0 0 0 0 0 0 0 0 0 0 0 0 0 0 0 0 0 0 0 0 0 0
0 0 0 0 0 0 0 0 0 0 0 0 0 0 0 0 0 0 0 0 0 0 0 0 0 0 0 0 0 0 0 0 0 0 0 0 0 0 0 0 0 0 0
0 0 0 0 0 0 0 0 0 0 0 0 0 0 0 0 0 0 0 0 0 0 0 0 0 0 0 0 0 0 0 0 0 0 0 0 0 0 0 0 0 0 0
0 0 0 0 0 0 0 0 0 0 0 0 0 0 0 0 0 0 0 0 0 0 0 0 0 0 0 0 0 0 0 0 0 0 0 0 0 0 0 0 0 0 0
0 0 0 0 0 0 0 0 0 0 0 0 0 0 0 0 0 0 0 0 0 0 0 0 0 0 0 0 0 0 0 0 0 0 0 0 0 0 0 0 0 0 0
0 0 0 0 0 0 0 0 0 0 0 0 0 0 0 0 0 0 0 0 0 0 0 0 0 0 0 0 0 0 0 0 0 0 0 0 0 0 0 0 0 0 0
0 0 0 0 0 0 0 0 0 0 0 0 0 0 0 0 0 0 0 0 0 0 0 0 0 0 0 0 0 0 0 0 0 0 0 0 0 0 0 0 0 0 0
0 0 0 0 0 0 0 0 0 0 0 0 0 0 0 0 0 0 0 0 0 0 0 0 0 0 0 0 0 0 0 0 0 0 0 0 0 0 0 0 0 0 0
0 0 0 0 0 0 0 0 0 0 0 0 0 0 0 0 0 0 0 0 0 0 0 0 0 0 0 0 0 0 0 0 0 0 0 0 0 0 0 0 0 0 0
Height
5605 5607 5609 5612 5614 5617 5620 5623 5626 5629 5632 5635 5638 5641 5644 5647 5649 5652 5654 5655 5657 5659 5661 5662 5663 5665 5666 5667 5667 5668 5668 5668 5669 5669 5669 5669 5669 5669 5669 5668 5668 5668 5667
5592 5594 5596 5598 5601 5604 5607 5610 5613 5616 5619 5622 5625 5628 5630 5633 5636 5639 5641 5643 5645 5647 5648 5650 5651 5652 5653 5654 5655 5655 5655 5655 5656 5656 5656 5656 5656 5655 5655 5655 5655 5654 5654
5579 5580 5583 5585 5588 5591 5594 5597 5600 5603 5606 5609 5612 5615 5617 5620 5623 5625 5628 5630 5632 5634 5635 5637 5638 5639 5640 5641 5641 5642 5642 5642 5642 5643 5643 5642 5642 5641 5641 5641 5640 5640 5640
5566 5568 5570 5573 5575 5578 5581 5584 5587 5590 5593 5595 5599 5602 5604 5607 5609 5612 5614 5617 5619 5620 5622 5623 5625 5626 5627 5627 5628 5628 5628 5628 5628 5629 5629 5628 5628 5627 5627 5627 5626 5626 5625
5553 5555 5558 5560 5563 5565 5568 5571 5574 5577 5580 5583 5586 5588 5591 5593 5596 5599 5601 5603 5605 5607 5608 5610 5611 5612 5612 5613 5614 5614 5614 5614 5614 5614 5614 5614 5614 5613 5613 5612 5612 5611 5610
5541 5543 5545 5548 5551 5553 5556 5558 5561 5564 5567 5569 5572 5575 5577 5580 5583 5585 5588 5589 5591 5593 5595 5596 5597 5597 5598 5599 5599 5599 5600 5600 5600 5600 5600 5600 5600 5598 5597 5597 5596 5596 5597
5529 5531 5533 5536 5538 5541 5543 5546 5548 5551 5554 5556 5559 5562 5564 5567 5569 5571 5574 5576 5577 5579 5580 5581 5582 5583 5583 5584 5584 5584 5584 5584 5585 5585 5585 5585 5584 5583 5582 5582 5581 5580 5580
5517 5519 5521 5524 5526 5529 5531 5533 5536 5538 5541 5543 5546 5549 5551 5553 5555 5557 5559 5561 5563 5564 5566 5567 5568 5568 5568 5569 5569 5569 5569 5569 5569 5570 5570 5570 5568 5567 5566 5566 5565 5564 5564
5506 5508 5510 5512 5515 5517 5519 5521 5523 5526 5528 5531 5533 5535 5538 5540 5541 5543 5545 5547 5548 5550 5551 5552 5552 5553 5554 5554 5555 5555 5555 5555 5554 5554 5554 5553 5552 5551 5550 5549 5549 5548 5549
5495 5497 5499 5501 5503 5505 5507 5509 5511 5514 5516 5518 5520 5522 5524 5526 5527 5529 5531 5533 5535 5536 5536 5537 5538 5538 5538 5538 5539 5540 5540 5540 5540 5539 5538 5537 5536 5535 5535 5534 5533 5533 5532
5485 5486 5488 5490 5492 5493 5495 5497 5499 5501 5503 5505 5507 5509 5511 5512 5514 5515 5516 5518 5519 5521 5522 5522 5523 5523 5523 5524 5524 5525 5525 5525 5524 5524 5523 5522 5521 5520 5520 5519 5518 5517 5517
5475 5475 5477 5478 5480 5482 5483 5485 5487 5489 5491 5492 5494 5495 5497 5499 5500 5501 5502 5504 5505 5506 5507 5508 5508 5508 5508 5509 5509 5509 5510 5510 5509 5509 5508 5507 5507 5506 5505 5503 5502 5502 5501
5465 5465 5466 5467 5469 5470 5472 5473 5475 5476 5478 5480 5481 5482 5484 5485 5486 5487 5488 5489 5490 5491 5492 5493 5493 5493 5494 5494 5495 5494 5495 5494 5494 5493 5493 5492 5491 5490 5489 5488 5487 5486 5486
5455 5455 5456 5457 5458 5460 5461 5462 5463 5464 5466 5467 5468 5470 5471 5472 5473 5474 5475 5475 5476 5476 5477 5478 5478 5479 5479 5479 5479 5479 5479 5479 5478 5478 5477 5477 5476 5475 5474 5473 5472 5472 5471
5446 5445 5446 5447 5448 5449 5450 5450 5452 5453 5454 5455 5456 5457 5458 5459 5460 5461 5461 5461 5462 5462 5463 5463 5464 5464 5464 5464 5464 5464 5464 5463 5463 5463 5462 5461 5460 5459 5459 5458 5457 5456 5456
5436 5436 5436 5437 5437 5438 5439 5439 5440 5441 5442 5442 5443 5444 5445 5446 5446 5447 5447 5447 5447 5448 5448 5448 5449 5449 5449 5449 5449 5449 5448 5448 5448 5447 5447 5446 5445 5444 5443 5442 5442 5441 5441
5426 5426 5426 5427 5427 5428 5428 5429 5429 5430 5430 5431 5431 5432 5433 5433 5434 5433 5434 5434 5434 5434 5434 5434 5434 5434 5434 5434 5434 5434 5434 5433 5432 5432 5431 5430 5429 5429 5428 5427 5426 5426 5425
5417 5417 5417 5417 5417 5418 5418 5418 5419 5419 5419 5419 5420 5420 5421 5421 5421 5420 5421 5421 5421 5420 5421 5421 5421 5420 5420 5420 5420 5419 5419 5418 5418 5417 5416 5415 5415 5414 5413 5412 5411 5410 5410
5408 5407 5407 5408 5408 5408 5408 5408 5408 5408 5408 5408 5408 5408 5408 5408 5408 5408 5408 5408 5408 5408 5407 5407 5407 5406 5406 5406 5405 5405 5405 5404 5403 5403 5402 5401 5400 5399 5398 5397 5396 5396 5395
5399 5399 5399 5399 5398 5398 5398 5398 5398 5398 5397 5397 5397 5397 5397 5396 5396 5396 5395 5395 5395 5395 5394 5393 5393 5392 5392 5392 5392 5391 5390 5390 5389 5388 5387 5386 5385 5384 5383 5382 5382 5381 5380
5391 5390 5390 5390 5389 5389 5388 5388 5388 5387 5387 5387 5386 5386 5385 5385 5384 5384 5383 5383 5382 5382 5381 5380 5379 5379 5379 5378 5378 5377 5376 5375 5374 5374 5373 5372 5371 5369 5368 5367 5366 5365 5365
5382 5382 5381 5380 5380 5379 5378 5378 5377 5377 5376 5376 5375 5374 5374 5373 5373 5372 5371 5371 5370 5369 5369 5368 5367 5366 5366 5365 5364 5363 5362 5361 5360 5359 5358 5357 5356 5355 5354 5352 5351 5350 5349
5373 5373 5372 5371 5370 5369 5368 5368 5367 5366 5366 5365 5364 5363 5363 5362 5361 5361 5360 5359 5358 5357 5356 5355 5354 5353 5352 5351 5350 5349 5348 5347 5346 5345 5343 5342 5341 5340 5339 5338 5336 5335 5334
5364 5363 5362 5361 5360 5359 5359 5358 5357 5356 5355 5354 5354 5353 5352 5351 5350 5349 5348 5347 5346 5345 5344 5343 5341 5340 5339 5338 5337 5336 5334 5333 5332 5331 5329 5328 5327 5326 5324 5323 5322 5321 5320
5355 5354 5353 5352 5351 5350 5349 5348 5347 5346 5345 5344 5343 5342 5341 5340 5339 5338 5337 5336 5334 5333 5331 5330 5328 5327 5326 5324 5323 5322 5320 5319 5318 5317 5316 5314 5313 5312 5311 5309 5308 5307 5306
5346 5345 5344 5342 5341 5340 5339 5338 5337 5336 5335 5334 5333 5332 5330 5329 5328 5327 5325 5324 5322 5321 5319 5317 5316 5314 5313 5311 5310 5308 5307 5306 5304 5303 5302 5301 5300 5298 5297 5296 5295 5294 5293
Wind_Speed
45 47 48 49 49 49 49 49 50 50 50 50 50 51 51 50 50 50 49 49 48 48 48 48 48 48 47 48 48 48 48 48 48 48 48 48 48 48 49 49 50 49 49
44 45 45 47 48 48 49 49 49 49 50 50 50 50 51 51 51 51 50 50 50 49 49 49 49 48 49 49 49 49 49 49 48 48 48 49 49 50 50 50 50 50 49
43 44 44 45 46 47 48 48 48 48 49 50 49 49 50 50 51 50 51 51 51 50 49 49 50 50 50 49 49 50 50 49 49 49 49 49 50 50 50 50 50 51 51
43 43 43 44 45 46 47 47 48 49 49 49 48 49 49 49 49 49 50 49 49 49 49 49 50 50 50 51 51 51 51 51 51 51 51 50 50 50 50 50 51 52 53
42 43 43 43 44 44 45 46 46 47 48 49 49 49 49 49 48 48 49 50 49 49 50 50 50 51 51 51 52 52 52 52 52 52 52 51 51 52 52 53 53 53 54
42 42 43 43 43 44 45 46 47 47 48 47 48 49 49 49 49 49 50 50 50 50 51 52 52 52 52 53 52 52 53 53 53 53 53 52 52 53 54 54 54 54 54
41 42 42 43 43 43 44 46 47 47 47 47 47 48 49 49 50 49 50 51 51 51 51 52 52 52 53 52 52 53 53 53 53 52 52 53 53 54 55 55 55 55 55
40 40 41 42 42 42 43 44 45 46 47 47 46 47 48 48 49 50 50 51 51 52 53 54 53 53 52 52 51 51 52 52 53 53 53 53 54 54 55 55 55 55 55
39 40 40 40 41 42 43 44 44 44 45 46 46 46 47 47 48 49 50 51 51 52 52 53 53 52 51 51 51 50 50 51 52 52 53 53 53 54 55 55 55 55 55
37 37 38 39 39 40 41 42 43 43 44 46 47 46 46 47 48 48 50 51 51 51 52 53 53 53 52 51 51 51 51 51 51 51 51 52 52 53 53 54 54 55 55
36 37 38 39 40 40 41 41 42 42 44 45 46 47 46 46 47 48 49 50 50 50 50 51 51 51 52 52 52 52 52 51 51 52 52 52 52 52 52 53 54 55 55
34 36 37 38 39 40 40 40 41 43 44 44 45 46 46 46 46 47 48 48 49 49 49 48 49 49 50 51 51 51 51 51 51 52 52 52 52 52 52 53 53 54 55
33 34 35 36 37 38 39 40 41 42 42 43 43 44 45 45 45 46 47 48 48 49 49 49 49 49 50 51 51 52 52 52 52 52 52 52 52 52 53 53 53 53 53
32 33 34 35 36 36 37 38 39 40 40 41 41 42 42 44 44 45 46 46 47 48 48 49 49 50 50 50 51 52 52 52 52 52 52 52 52 52 52 52 52 52 52
32 32 33 34 35 35 36 37 38 38 39 40 41 41 41 42 43 45 45 45 46 47 47 48 49 50 51 51 51 51 51 51 51 50 50 51 51 51 52 52 52 52 52
31 31 32 32 33 35 35 36 37 38 38 39 40 41 41 41 43 44 44 44 45 46 47 47 48 48 49 49 49 49 50 50 50 50 50 50 50 51 51 51 51 51 51
29 30 31 31 32 33 34 35 36 36 37 38 39 39 40 40 41 41 42 43 44 45 46 46 46 47 47 47 47 47 48 48 48 48 49 48 48 49 49 50 50 50 51
28 28 29 30 30 31 32 33 34 35 36 37 38 38 39 40 40 41 41 42 43 44 44 45 45 45 46 46 46 46 46 47 47 47 47 47 47 47 48 48 49 49 50
27 28 28 29 30 30 31 32 33 33 34 35 36 37 38 39 39 40 41 41 42 43 43 44 44 44 45 45 45 46 46 46 46 46 46 47 47 47 47 48 48 49 49
26 27 27 28 29 30 31 32 33 33 33 34 34 35 36 37 39 39 40 41 41 41 42 43 43 43 43 44 44 44 45 45 45 46 46 47 47 47 48 48 48 49 49
26 26 27 28 29 29 30 31 32 33 34 34 34 35 36 36 37 38 39 39 39 39 40 40 41 42 42 43 43 43 44 44 45 45 46 47 47 47 48 48 49 49 49
27 28 28 30 30 30 31 31 32 32 33 34 34 35 35 35 36 36 37 38 38 38 39 40 40 41 41 42 43 43 43 44 45 46 46 46 47 47 47 47 48 48 48
27 27 28 29 30 30 31 31 31 31 32 33 33 34 34 34 34 35 36 36 37 38 39 39 40 40 41 42 42 43 43 44 44 45 45 45 46 46 46 46 47 47 47
27 28 28 28 28 29 29 30 30 30 30 31 31 32 33 33 33 34 35 36 37 38 39 39 39 40 41 41 42 42 43 43 44 43 43 44 44 44 44 44 45 45 45
27 27 27 27 27 28 28 29 29 29 29 29 30 31 31 32 33 33 34 35 36 37 37 38 39 40 41 41 42 42 42 43 43 43 43 42 43 43 43 43 43 43 43
26 26 26 26 26 26 27 27 28 28 28 29 29 30 30 31 32 33 34 34 35 35 36 37 37 38 39 40 40 40 41 41 41 41 41 41 42 42 43 42 42 41 41
Wind_Direction
251 251 250 249 250 250 250 250 250 250 250 250 249 250 251 252 252 254 256 258 257 258 260 261 262 262 263 265 265 265 266 265 266 266 266 267 267 267 268 268 268 269 269
253 252 251 250 250 249 249 249 249 249 249 250 250 251 251 252 253 253 255 257 258 259 260 261 262 262 263 264 265 265 266 266 267 267 267 268 268 268 268 268 268 268 269
254 253 251 250 249 249 248 248 249 249 250 250 250 251 252 253 253 253 254 256 258 259 260 261 262 263 264 264 265 265 266 266 267 267 268 268 268 268 268 268 268 269 269
253 253 251 250 249 249 249 249 249 250 251 250 249 250 252 252 252 253 254 255 257 258 260 262 263 263 264 264 265 266 266 266 267 267 268 268 268 267 268 268 268 269 269
252 252 251 249 249 249 249 249 249 250 250 250 250 251 252 252 252 253 255 255 256 258 260 261 262 263 264 265 265 265 266 266 266 266 267 267 267 268 268 268 269 270 270
252 251 250 249 249 249 249 249 250 251 250 250 252 252 252 252 252 253 254 257 258 258 260 261 262 263 264 265 265 265 266 265 265 266 266 267 268 268 268 268 269 270 270
252 251 250 249 250 250 250 251 252 251 251 252 252 253 253 253 253 254 255 256 258 258 259 261 261 262 264 264 264 264 265 265 265 265 266 267 268 268 269 269 270 270 270
252 252 250 249 250 250 252 252 252 252 252 252 253 254 254 255 255 255 256 257 258 258 259 260 261 263 263 264 265 264 264 265 266 267 268 269 269 270 271 271 271 271 271
253 252 251 250 251 252 253 252 252 252 252 253 254 255 256 257 257 257 257 258 259 260 260 260 262 263 264 265 265 265 265 266 267 268 269 270 270 270 270 271 271 271 271
254 252 252 251 252 252 253 253 253 253 253 253 254 255 257 258 258 258 258 258 259 260 261 262 262 263 263 264 264 265 266 266 267 268 269 270 270 270 270 271 271 271 272
256 254 253 252 253 253 254 254 254 254 254 253 255 255 256 258 259 259 259 259 259 260 262 263 263 263 263 264 265 266 266 267 267 268 269 269 270 270 271 272 272 272 272
258 256 255 254 254 255 254 254 254 255 255 256 257 257 258 259 260 260 260 261 261 261 262 262 263 263 263 264 266 267 267 268 269 269 270 270 271 271 272 271 271 272 272
261 257 256 256 255 255 255 256 256 256 257 258 258 258 258 258 259 260 261 261 262 262 262 261 261 262 262 263 265 266 267 268 269 269 270 270 270 271 271 271 271 271 271
264 260 258 257 256 255 256 257 256 257 257 258 258 259 258 258 259 261 262 262 262 262 262 261 261 262 263 264 265 266 267 268 269 270 269 270 270 270 271 271 270 270 270
264 262 260 258 257 257 257 257 256 256 257 258 259 259 259 260 261 262 263 263 262 263 263 263 263 263 264 264 265 266 267 268 269 269 269 270 270 271 270 270 270 269 269
264 262 261 260 259 258 258 258 258 258 259 260 260 260 261 262 263 263 263 263 264 264 265 265 265 265 265 265 265 266 267 268 269 269 269 270 270 270 270 270 270 269 269
265 263 262 262 261 261 261 260 260 260 261 261 262 262 263 263 264 264 265 265 266 266 266 266 266 266 266 266 266 267 267 268 269 270 270 271 271 270 270 270 269 269 269
267 265 263 263 264 263 264 264 264 264 264 264 263 263 264 265 265 266 266 266 266 267 267 267 267 267 267 267 267 267 268 269 270 270 270 271 271 271 271 270 270 270 269
270 267 266 264 264 265 265 265 266 266 265 266 266 265 265 265 266 267 266 266 266 267 268 268 268 268 268 268 268 269 270 270 270 270 271 271 272 272 272 271 271 271 270
270 269 268 268 266 265 266 266 266 266 267 267 267 268 269 268 268 267 267 267 267 268 269 269 269 268 268 268 269 270 270 271 271 271 271 272 272 272 272 272 271 271 271
270 270 269 269 269 269 268 268 268 268 268 269 269 270 271 270 270 270 269 269 269 269 270 269 269 269 269 270 271 271 271 271 271 272 272 272 272 272 272 272 272 271 271
272 271 271 271 271 272 271 271 270 270 270 270 270 271 271 271 271 272 271 271 270 270 271 271 271 271 271 271 272 272 272 272 272 273 273 273 272 272 272 273 273 272 271
273 273 273 273 273 273 272 272 272 272 272 272 272 272 272 272 272 272 273 273 273 273 273 273 273 272 272 272 272 273 273 273 273 274 273 273 273 273 273 273 273 272 272
275 275 275 275 275 274 274 274 273 273 273 273 273 273 273 273 273 273 273 274 274 275 275 276 275 274 274 274 274 274 274 274 274 274 274 274 274 274 274 274 274 273 273
278 277 277 277 276 275 275 275 275 274 274 274 274 274 274 274 275 274 274 275 275 276 277 277 277 276 276 276 276 275 275 275 275 274 274 274 274 274 275 274 274 273 273
278 277 277 277 276 276 276 276 276 276 276 276 276 276 276 276 277 277 276 276 277 278 279 279 279 278 278 277 276 276 276 276 276 275 275 275 275 275 275 274 274 273 272